,,,PA_Meas_PMT16A,,PR_Meas_QMR101_102,,RH_Meas_QMH101,,SR_Meas_QMS101,,TA_Meas_QMH101,,GenWind,,GenWind,
date,time,status,PA,status,PR,status,RH,status,SR,status,TA,status,DirAvg,status,SpdAvg,
2009-06-03, 00:00:05,VALID,1001.14,VALID,0,VALID,73.7021,VALID,0,VALID,27.3891,VALID,182,VALID,3.23867,
2009-06-03, 00:01:05,VALID,1001.14,VALID,0,VALID,74.0607,VALID,0,VALID,27.3696,VALID,186,VALID,3.52695,
2009-06-03, 00:02:05,VALID,1001.14,VALID,0,VALID,73.7555,VALID,0.112286,VALID,27.3675,VALID,187,VALID,3.66797,
2009-06-03, 00:03:05,VALID,1001.14,VALID,0,VALID,74.0684,VALID,0,VALID,27.3696,VALID,192,VALID,2.36602,
2009-06-03, 00:04:05,VALID,1001.15,VALID,0,VALID,74.1523,VALID,0,VALID,27.3305,VALID,187,VALID,2.39102,
2009-06-03, 00:05:05,VALID,1001.11,VALID,0,VALID,74.2515,VALID,0,VALID,27.3305,VALID,184,VALID,3.11211,
2009-06-03, 00:06:05,VALID,1001.08,VALID,0,VALID,74.0531,VALID,0,VALID,27.311,VALID,193,VALID,2.95,
2009-06-03, 00:07:05,VALID,1001.07,VALID,0,VALID,73.5495,VALID,0,VALID,27.35,VALID,190,VALID,2.86445,
2009-06-03, 00:08:05,VALID,1001.05,VALID,0,VALID,73.8547,VALID,0,VALID,27.3305,VALID,192,VALID,2.88047,
2009-06-03, 00:09:05,VALID,1001.05,VALID,0,VALID,73.9692,VALID,0,VALID,27.2915,VALID,177,VALID,2.56484,
2009-06-03, 00:10:05,VALID,1001.04,VALID,0,VALID,73.9921,VALID,0.112286,VALID,27.2915,VALID,181,VALID,2.76055,
2009-06-03, 00:11:05,VALID,1001.03,VALID,0,VALID,73.3817,VALID,0.112286,VALID,27.311,VALID,189,VALID,3.37422,
2009-06-03, 00:12:05,VALID,1000.99,VALID,0,VALID,73.0765,VALID,0,VALID,27.3305,VALID,178,VALID,3.44336,
2009-06-03, 00:13:05,VALID,1000.97,VALID,0,VALID,73.2367,VALID,0,VALID,27.3305,VALID,187,VALID,3.01602,
2009-06-03, 00:14:05,VALID,1000.97,VALID,0,VALID,73.107,VALID,0.112286,VALID,27.3305,VALID,184,VALID,2.84258,
2009-06-03, 00:15:05,VALID,1000.94,VALID,0,VALID,72.9163,VALID,0,VALID,27.311,VALID,172,VALID,3.17852,
2009-06-03, 00:16:05,VALID,1000.95,VALID,0,VALID,72.634,VALID,0,VALID,27.3696,VALID,206,VALID,3.62812,
2009-06-03, 00:17:05,VALID,1000.89,VALID,0,VALID,73.0155,VALID,0,VALID,27.3696,VALID,202,VALID,2.80508,
2009-06-03, 00:18:05,VALID,1000.92,VALID,0,VALID,73.2825,VALID,0,VALID,27.3305,VALID,197,VALID,2.09922,
2009-06-03, 00:19:05,VALID,1000.89,VALID,0,VALID,73.6792,VALID,0,VALID,27.2915,VALID,214,VALID,2.09648,
2009-06-03, 00:20:05,VALID,1000.84,VALID,0,VALID,73.2825,VALID,0,VALID,27.2719,VALID,218,VALID,3.00977,
2009-06-03, 00:21:05,VALID,1000.84,VALID,0,VALID,73.3969,VALID,0,VALID,27.2915,VALID,196,VALID,3.21367,
2009-06-03, 00:22:05,VALID,1000.79,VALID,0,VALID,73.313,VALID,0,VALID,27.2915,VALID,199,VALID,2.78437,
2009-06-03, 00:23:05,VALID,1000.82,VALID,0,VALID,73.1146,VALID,0,VALID,27.3305,VALID,200,VALID,2.48359,
2009-06-03, 00:24:05,VALID,1000.8,VALID,0,VALID,72.8476,VALID,0,VALID,27.3305,VALID,177,VALID,3.00859,
2009-06-03, 00:25:05,VALID,1000.79,VALID,0,VALID,73.0841,VALID,0,VALID,27.35,VALID,186,VALID,2.51602,
2009-06-03, 00:26:05,VALID,1000.78,VALID,0,VALID,72.4814,VALID,0,VALID,27.3696,VALID,196,VALID,3.12891,
2009-06-03, 00:27:05,VALID,1000.82,VALID,0,VALID,72.9392,VALID,0,VALID,27.3696,VALID,200,VALID,3.06094,
2009-06-03, 00:28:05,VALID,1000.8,VALID,0,VALID,72.2601,VALID,0,VALID,27.3305,VALID,170,VALID,3.78789,
2009-06-03, 00:29:05,VALID,1000.82,VALID,0,VALID,73.3741,VALID,0,VALID,27.311,VALID,179,VALID,2.47266,
2009-06-03, 00:30:05,VALID,1000.78,VALID,0,VALID,73.3512,VALID,0,VALID,27.311,VALID,188,VALID,2.63008,
2009-06-03, 00:31:05,VALID,1000.78,VALID,0,VALID,72.6492,VALID,0,VALID,27.3305,VALID,177,VALID,2.95352,
2009-06-03, 00:32:05,VALID,1000.79,VALID,0,VALID,72.6645,VALID,0,VALID,27.3305,VALID,174,VALID,3.45625,
2009-06-03, 00:33:05,VALID,1000.79,VALID,0,VALID,72.8934,VALID,0,VALID,27.3326,VALID,176,VALID,3.41445,
2009-06-03, 00:34:05,VALID,1000.8,VALID,0,VALID,73.0536,VALID,0,VALID,27.2503,VALID,170,VALID,3.81016,
2009-06-03, 00:35:05,VALID,1000.78,VALID,0,VALID,73.1909,VALID,0,VALID,27.2524,VALID,183,VALID,3.01289,
2009-06-03, 00:36:05,VALID,1000.73,VALID,0,VALID,73.4427,VALID,0,VALID,27.2329,VALID,177,VALID,2.58398,
2009-06-03, 00:37:05,VALID,1000.7,VALID,0,VALID,72.9392,VALID,0,VALID,27.2133,VALID,187,VALID,3.26289,
2009-06-03, 00:38:05,VALID,1000.7,VALID,0,VALID,72.8552,VALID,0,VALID,27.2524,VALID,181,VALID,2.98477,
2009-06-03, 00:39:05,VALID,1000.69,VALID,0,VALID,72.695,VALID,0,VALID,27.311,VALID,171,VALID,3.21602,
2009-06-03, 00:40:05,VALID,1000.67,VALID,0,VALID,73.0918,VALID,0,VALID,27.3305,VALID,166,VALID,3.61172,
2009-06-03, 00:41:05,VALID,1000.67,VALID,0,VALID,72.7332,VALID,0,VALID,27.35,VALID,164,VALID,5.41016,
2009-06-03, 00:42:05,VALID,1000.65,VALID,0,VALID,72.0846,VALID,0,VALID,27.3891,VALID,171,VALID,3.46172,
2009-06-03, 00:43:05,VALID,1000.67,VALID,0,VALID,72.1152,VALID,0,VALID,27.4477,VALID,169,VALID,3.82305,
2009-06-03, 00:44:05,VALID,1000.64,VALID,0,VALID,72.0846,VALID,0,VALID,27.4477,VALID,181,VALID,3.62461,
2009-06-03, 00:45:05,VALID,1000.63,VALID,0,VALID,71.7261,VALID,0,VALID,27.5063,VALID,171,VALID,5.45039,
2009-06-03, 00:46:05,VALID,1000.59,VALID,0,VALID,70.9249,VALID,0,VALID,27.5649,VALID,180,VALID,5.13281,
2009-06-03, 00:47:05,VALID,1000.59,VALID,0,VALID,71.2607,VALID,0,VALID,27.6256,VALID,186,VALID,4.24648,
2009-06-03, 00:48:05,VALID,1000.61,VALID,0,VALID,70.6274,VALID,0.112286,VALID,27.604,VALID,185,VALID,5.03281,
2009-06-03, 00:49:05,VALID,1000.66,VALID,0,VALID,70.2459,VALID,0,VALID,27.6452,VALID,178,VALID,5.02695,
2009-06-03, 00:50:05,VALID,1000.62,VALID,0,VALID,71.1615,VALID,0,VALID,27.604,VALID,158,VALID,5.49297,
2009-06-03, 00:51:05,VALID,1000.62,VALID,0,VALID,70.429,VALID,0,VALID,27.5845,VALID,173,VALID,5.80156,
2009-06-03, 00:52:05,VALID,1000.61,VALID,0,VALID,70.2459,VALID,0,VALID,27.6431,VALID,181,VALID,5.60742,
2009-06-03, 00:53:05,VALID,1000.67,VALID,0,VALID,70.1162,VALID,0,VALID,27.7017,VALID,187,VALID,4.16875,
2009-06-03, 00:54:05,VALID,1000.61,VALID,0,VALID,70.2154,VALID,0,VALID,27.7038,VALID,178,VALID,3.45937,
2009-06-03, 00:55:05,VALID,1000.6,VALID,0,VALID,70.5053,VALID,0,VALID,27.6821,VALID,180,VALID,3.98711,
2009-06-03, 00:56:05,VALID,1000.63,VALID,0,VALID,70.3985,VALID,0,VALID,27.6626,VALID,188,VALID,3.78672,
2009-06-03, 00:57:05,VALID,1000.64,VALID,0,VALID,70.7342,VALID,0,VALID,27.5845,VALID,175,VALID,4.38281,
2009-06-03, 00:58:05,VALID,1000.66,VALID,0,VALID,71.1233,VALID,0,VALID,27.5649,VALID,170,VALID,3.35234,
2009-06-03, 00:59:05,VALID,1000.69,VALID,0,VALID,71.0394,VALID,0,VALID,27.5454,VALID,189,VALID,2.53672,
2009-06-03, 01:00:05,VALID,1000.66,VALID,0,VALID,71.0089,VALID,0,VALID,27.5258,VALID,182,VALID,3.86797,
2009-06-03, 01:01:05,VALID,1000.62,VALID,0,VALID,70.6655,VALID,0,VALID,27.5454,VALID,182,VALID,3.71289,
2009-06-03, 01:02:05,VALID,1000.65,VALID,0,VALID,71.2378,VALID,0,VALID,27.5649,VALID,181,VALID,2.77617,
2009-06-03, 01:03:05,VALID,1000.64,VALID,0,VALID,71.5887,VALID,0,VALID,27.5063,VALID,188,VALID,2.35859,
2009-06-03, 01:04:05,VALID,1000.61,VALID,0,VALID,71.4438,VALID,0,VALID,27.4868,VALID,204,VALID,3.60195,
2009-06-03, 01:05:05,VALID,1000.58,VALID,0,VALID,71.1844,VALID,0,VALID,27.4868,VALID,191,VALID,2.67227,
2009-06-03, 01:06:05,VALID,1000.56,VALID,0,VALID,71.4438,VALID,0,VALID,27.4672,VALID,204,VALID,3.28437,
2009-06-03, 01:07:05,VALID,1000.53,VALID,0,VALID,70.5511,VALID,0,VALID,27.4868,VALID,212,VALID,4.56289,
2009-06-03, 01:08:05,VALID,1000.58,VALID,0,VALID,70.635,VALID,0,VALID,27.5258,VALID,186,VALID,2.78164,
2009-06-03, 01:09:05,VALID,1000.56,VALID,0,VALID,70.8105,VALID,0,VALID,27.5258,VALID,190,VALID,3.12344,
2009-06-03, 01:10:05,VALID,1000.54,VALID,0,VALID,71.3293,VALID,0,VALID,27.4868,VALID,202,VALID,2.62656,
2009-06-03, 01:11:05,VALID,1000.52,VALID,0,VALID,71.5506,VALID,0,VALID,27.4456,VALID,196,VALID,2.11133,
2009-06-03, 01:12:05,VALID,1000.52,VALID,0,VALID,71.3522,VALID,0,VALID,27.4477,VALID,195,VALID,2.37109,
2009-06-03, 01:13:05,VALID,1000.52,VALID,0,VALID,71.2454,VALID,0,VALID,27.4261,VALID,188,VALID,2.53047,
2009-06-03, 01:14:05,VALID,1000.56,VALID,0,VALID,72.0084,VALID,0.112286,VALID,27.387,VALID,194,VALID,1.95742,
2009-06-03, 01:15:05,VALID,1000.5,VALID,0,VALID,71.8024,VALID,0,VALID,27.3284,VALID,184,VALID,1.9832,
2009-06-03, 01:16:05,VALID,1000.55,VALID,0,VALID,71.8176,VALID,0,VALID,27.2894,VALID,225,VALID,1.60352,
2009-06-03, 01:17:05,VALID,1000.53,VALID,0,VALID,71.5201,VALID,0,VALID,27.3305,VALID,218,VALID,2.53359,
2009-06-03, 01:18:05,VALID,1000.54,VALID,0,VALID,71.5506,VALID,0,VALID,27.3089,VALID,212,VALID,2.21094,
2009-06-03, 01:19:05,VALID,1000.52,VALID,0,VALID,71.2988,VALID,0,VALID,27.3696,VALID,189,VALID,2.15586,
2009-06-03, 01:20:05,VALID,1000.53,VALID,0,VALID,71.4285,VALID,0,VALID,27.3696,VALID,201,VALID,1.87227,
2009-06-03, 01:21:05,VALID,1000.52,VALID,0,VALID,71.4972,VALID,0.112286,VALID,27.348,VALID,212,VALID,2.04492,
2009-06-03, 01:22:05,VALID,1000.5,VALID,0,VALID,71.2149,VALID,0.112286,VALID,27.387,VALID,201,VALID,2.01563,
2009-06-03, 01:23:05,VALID,1000.51,VALID,0,VALID,71.3827,VALID,0,VALID,27.387,VALID,198,VALID,1.25586,
2009-06-03, 01:24:05,VALID,1000.49,VALID,0,VALID,72.2067,VALID,0,VALID,27.35,VALID,221,VALID,1.38555,
2009-06-03, 01:25:05,VALID,1000.49,VALID,0,VALID,72.0465,VALID,0,VALID,27.35,VALID,194,VALID,1.0707,
2009-06-03, 01:26:05,VALID,1000.52,VALID,0,VALID,72.0694,VALID,0,VALID,27.311,VALID,222,VALID,1.74766,
2009-06-03, 01:27:05,VALID,1000.5,VALID,0,VALID,72.1686,VALID,0,VALID,27.2698,VALID,192,VALID,2.01758,
2009-06-03, 01:28:05,VALID,1000.52,VALID,0,VALID,72.3517,VALID,0,VALID,27.2719,VALID,222,VALID,0.962109,
2009-06-03, 01:29:05,VALID,1000.52,VALID,0,VALID,72.5729,VALID,0,VALID,27.2329,VALID,220,VALID,0.973437,
2009-06-03, 01:30:05,VALID,1000.48,VALID,0,VALID,72.9468,VALID,0,VALID,27.1938,VALID,234,VALID,0.741797,
2009-06-03, 01:31:05,VALID,1000.48,VALID,0,VALID,72.8171,VALID,0,VALID,27.1352,VALID,228,VALID,1.26445,
2009-06-03, 01:32:05,VALID,1000.49,VALID,0,VALID,72.3441,VALID,0,VALID,27.0941,VALID,200,VALID,1.38242,
2009-06-03, 01:33:05,VALID,1000.42,VALID,0,VALID,73.0384,VALID,0,VALID,27.1352,VALID,240,VALID,1.16992,
2009-06-03, 01:34:05,VALID,1000.41,VALID,0,VALID,73.3512,VALID,0,VALID,27.0745,VALID,210,VALID,0.875781,
2009-06-03, 01:35:05,VALID,1000.4,VALID,0,VALID,73.5495,VALID,0,VALID,27.0766,VALID,232,VALID,1.03828,
2009-06-03, 01:36:05,VALID,1000.4,VALID,0,VALID,73.3588,VALID,0,VALID,27.0766,VALID,229,VALID,0.875781,
2009-06-03, 01:37:05,VALID,1000.35,VALID,0,VALID,73.6869,VALID,0,VALID,27.0375,VALID,236,VALID,1.08594,
2009-06-03, 01:38:05,VALID,1000.31,VALID,0,VALID,73.4275,VALID,0,VALID,27.0571,VALID,233,VALID,1.20938,
2009-06-03, 01:39:05,VALID,1000.32,VALID,0,VALID,73.7021,VALID,0,VALID,27.0355,VALID,240,VALID,0.957031,
2009-06-03, 01:40:05,VALID,1000.32,VALID,0,VALID,73.8776,VALID,0,VALID,26.9985,VALID,247,VALID,1.43711,
2009-06-03, 01:41:05,VALID,1000.37,VALID,0,VALID,74.1446,VALID,0,VALID,26.9574,VALID,226,VALID,1.18711,
2009-06-03, 01:42:05,VALID,1000.3,VALID,0,VALID,74.1065,VALID,0,VALID,26.9594,VALID,241,VALID,1.00898,
2009-06-03, 01:43:05,VALID,1000.31,VALID,0,VALID,74.4498,VALID,0,VALID,26.9594,VALID,244,VALID,0.839453,
2009-06-03, 01:44:05,VALID,1000.3,VALID,0,VALID,74.6253,VALID,0.112286,VALID,26.8988,VALID,262,VALID,0.817187,
2009-06-03, 01:45:05,VALID,1000.31,VALID,0,VALID,74.3354,VALID,0,VALID,26.9204,VALID,258,VALID,1.0375,
2009-06-03, 01:46:05,VALID,1000.34,VALID,0,VALID,74.1981,VALID,0,VALID,26.9399,VALID,243,VALID,0.692578,
2009-06-03, 01:47:05,VALID,1000.4,VALID,0,VALID,74.6406,VALID,0,VALID,26.9008,VALID,243,VALID,0.786719,
2009-06-03, 01:48:05,VALID,1000.41,VALID,0,VALID,74.7092,VALID,0,VALID,26.9204,VALID,215,VALID,1.01602,
2009-06-03, 01:49:05,VALID,1000.42,VALID,0,VALID,74.4575,VALID,0,VALID,26.9008,VALID,255,VALID,0.844141,
2009-06-03, 01:50:05,VALID,1000.41,VALID,0,VALID,74.343,VALID,0,VALID,26.8813,VALID,240,VALID,0.568359,
2009-06-03, 01:51:05,VALID,1000.38,VALID,0,VALID,74.9458,VALID,0.112286,VALID,26.8618,VALID,251,VALID,0.669141,
2009-06-03, 01:52:05,VALID,1000.35,VALID,0,VALID,75.3883,VALID,0,VALID,26.8032,VALID,272,VALID,0.7625,
2009-06-03, 01:53:05,VALID,1000.32,VALID,0,VALID,75.0373,VALID,0,VALID,26.7641,VALID,225,VALID,0.908594,
2009-06-03, 01:54:05,VALID,1000.3,VALID,0,VALID,75.312,VALID,0,VALID,26.7857,VALID,264,VALID,0.665625,
2009-06-03, 01:55:05,VALID,1000.32,VALID,0,VALID,75.2281,VALID,0,VALID,26.7661,VALID,266,VALID,0.434766,
2009-06-03, 01:56:05,VALID,1000.36,VALID,0,VALID,75.2052,VALID,0,VALID,26.7641,VALID,266,VALID,0.330859,
2009-06-03, 01:57:05,VALID,1000.34,VALID,0,VALID,75.3425,VALID,0,VALID,26.7641,VALID,226,VALID,0.271484,
2009-06-03, 01:58:05,VALID,1000.31,VALID,0,VALID,75.6172,VALID,0,VALID,26.7251,VALID,226,VALID,0.119922,
2009-06-03, 01:59:05,VALID,1000.29,VALID,0,VALID,75.9452,VALID,0,VALID,26.7271,VALID,262,VALID,0.423438,
2009-06-03, 02:00:05,VALID,1000.28,VALID,0,VALID,75.9758,VALID,0,VALID,26.686,VALID,205,VALID,0.961719,
2009-06-03, 02:01:05,VALID,1000.24,VALID,0,VALID,75.6324,VALID,0,VALID,26.688,VALID,209,VALID,0.922656,
2009-06-03, 02:02:05,VALID,1000.26,VALID,0,VALID,75.8689,VALID,0,VALID,26.7076,VALID,206,VALID,1.03711,
2009-06-03, 02:03:05,VALID,1000.2,VALID,0,VALID,75.5714,VALID,0,VALID,26.7271,VALID,201,VALID,0.570703,
2009-06-03, 02:04:05,VALID,1000.18,VALID,0,VALID,75.8155,VALID,0,VALID,26.7271,VALID,202,VALID,0.6875,
2009-06-03, 02:05:05,VALID,1000.12,VALID,0,VALID,75.4646,VALID,0,VALID,26.7466,VALID,206,VALID,0.648438,
2009-06-03, 02:06:05,VALID,1000.14,VALID,0,VALID,75.2662,VALID,0,VALID,26.7446,VALID,184,VALID,0.680469,
2009-06-03, 02:07:05,VALID,1000.09,VALID,0,VALID,74.7169,VALID,0,VALID,26.7836,VALID,214,VALID,0.927344,
2009-06-03, 02:08:05,VALID,1000.15,VALID,0,VALID,75.8384,VALID,0,VALID,26.8443,VALID,238,VALID,0.615234,
2009-06-03, 02:09:05,VALID,1000.14,VALID,0,VALID,75.7316,VALID,0,VALID,26.7836,VALID,234,VALID,0.976563,
2009-06-03, 02:10:05,VALID,1000.15,VALID,0,VALID,75.3425,VALID,0,VALID,26.7446,VALID,230,VALID,1.30703,
2009-06-03, 02:11:05,VALID,1000.12,VALID,0,VALID,75.2967,VALID,0,VALID,26.7836,VALID,221,VALID,1.25273,
2009-06-03, 02:12:04,VALID,1000.1,VALID,0,VALID,75.6248,VALID,0,VALID,26.7836,VALID,218,VALID,0.894922,
2009-06-03, 02:13:04,VALID,1000.06,VALID,0,VALID,75.4188,VALID,0,VALID,26.7641,VALID,221,VALID,0.900391,
2009-06-03, 02:14:04,VALID,1000.05,VALID,0,VALID,75.3578,VALID,0,VALID,26.7836,VALID,219,VALID,0.885938,
2009-06-03, 02:15:04,VALID,1000.02,VALID,0,VALID,74.8542,VALID,0,VALID,26.7836,VALID,218,VALID,1.15586,
2009-06-03, 02:16:04,VALID,999.975,VALID,0,VALID,75.0907,VALID,0,VALID,26.7816,VALID,212,VALID,0.977734,
2009-06-03, 02:17:04,VALID,999.99,VALID,0,VALID,74.7626,VALID,0,VALID,26.8443,VALID,215,VALID,1.25898,
2009-06-03, 02:18:04,VALID,999.92,VALID,0,VALID,74.8008,VALID,0,VALID,26.8618,VALID,209,VALID,0.800781,
2009-06-03, 02:19:04,VALID,999.878,VALID,0,VALID,75.2815,VALID,0,VALID,26.8227,VALID,207,VALID,0.953125,
2009-06-03, 02:20:04,VALID,999.895,VALID,0,VALID,75.1136,VALID,0,VALID,26.8227,VALID,203,VALID,1.09844,
2009-06-03, 02:21:04,VALID,999.87,VALID,0,VALID,75.0755,VALID,0,VALID,26.7836,VALID,216,VALID,1.17188,
2009-06-03, 02:22:04,VALID,999.857,VALID,0,VALID,74.8466,VALID,0,VALID,26.8422,VALID,210,VALID,1.58008,
2009-06-03, 02:23:04,VALID,999.813,VALID,0,VALID,74.5872,VALID,0,VALID,26.8813,VALID,198,VALID,1.50977,
2009-06-03, 02:24:04,VALID,999.789,VALID,0,VALID,74.343,VALID,0,VALID,26.8833,VALID,188,VALID,1.70742,
2009-06-03, 02:25:04,VALID,999.789,VALID,0,VALID,74.5185,VALID,0,VALID,26.944,VALID,195,VALID,1.38594,
2009-06-03, 02:26:04,VALID,999.82,VALID,0,VALID,74.1828,VALID,0,VALID,26.9419,VALID,201,VALID,1.32656,
2009-06-03, 02:27:04,VALID,999.833,VALID,0,VALID,74.2515,VALID,0,VALID,26.9419,VALID,213,VALID,1.18203,
2009-06-03, 02:28:04,VALID,999.815,VALID,0,VALID,74.6406,VALID,0,VALID,26.9224,VALID,202,VALID,0.944141,
2009-06-03, 02:29:04,VALID,999.824,VALID,0,VALID,74.5643,VALID,0,VALID,26.8638,VALID,211,VALID,0.9875,
2009-06-03, 02:30:04,VALID,999.833,VALID,0,VALID,74.7321,VALID,0,VALID,26.8638,VALID,244,VALID,0.786719,
2009-06-03, 02:31:04,VALID,999.838,VALID,0,VALID,74.5872,VALID,0,VALID,26.8443,VALID,222,VALID,1.28125,
2009-06-03, 02:32:04,VALID,999.821,VALID,0,VALID,74.8466,VALID,0,VALID,26.8247,VALID,213,VALID,1.1625,
2009-06-03, 02:33:04,VALID,999.863,VALID,0,VALID,74.9076,VALID,0,VALID,26.8052,VALID,221,VALID,0.770703,
2009-06-03, 02:34:04,VALID,999.83,VALID,0,VALID,74.7779,VALID,0,VALID,26.8052,VALID,215,VALID,0.78125,
2009-06-03, 02:35:04,VALID,999.854,VALID,0,VALID,74.8389,VALID,0,VALID,26.7857,VALID,212,VALID,0.493359,
2009-06-03, 02:36:04,VALID,999.847,VALID,0,VALID,75.1289,VALID,0,VALID,26.7661,VALID,187,VALID,0.520703,
2009-06-03, 02:37:04,VALID,999.854,VALID,0,VALID,75.2281,VALID,0,VALID,26.7682,VALID,188,VALID,0.216406,
2009-06-03, 02:38:04,VALID,999.835,VALID,0,VALID,75.6324,VALID,0,VALID,26.7076,VALID,188,VALID,0.196484,
2009-06-03, 02:39:04,VALID,999.803,VALID,0,VALID,75.5104,VALID,0,VALID,26.6469,VALID,194,VALID,0.274219,
2009-06-03, 02:40:04,VALID,999.839,VALID,0,VALID,75.5561,VALID,0,VALID,26.6079,VALID,136,VALID,0.400781,
2009-06-03, 02:41:04,VALID,999.827,VALID,0,VALID,76.3267,VALID,0,VALID,26.5884,VALID,139,VALID,0.728125,
2009-06-03, 02:42:04,VALID,999.84,VALID,0,VALID,76.548,VALID,0,VALID,26.5493,VALID,136,VALID,0.583594,
2009-06-03, 02:43:04,VALID,999.869,VALID,0,VALID,76.3725,VALID,0,VALID,26.5102,VALID,167,VALID,1.40781,
2009-06-03, 02:44:04,VALID,999.918,VALID,0,VALID,76.3496,VALID,0,VALID,26.5102,VALID,158,VALID,1.18438,
2009-06-03, 02:45:04,VALID,999.883,VALID,0,VALID,76.3115,VALID,0,VALID,26.4907,VALID,153,VALID,0.977734,
2009-06-03, 02:46:04,VALID,999.903,VALID,0,VALID,76.4793,VALID,0,VALID,26.5123,VALID,150,VALID,0.928516,
2009-06-03, 02:47:04,VALID,999.939,VALID,0,VALID,76.3649,VALID,0,VALID,26.4712,VALID,150,VALID,0.973047,
2009-06-03, 02:48:04,VALID,999.931,VALID,0,VALID,76.8379,VALID,0,VALID,26.4517,VALID,149,VALID,0.935156,
2009-06-03, 02:49:04,VALID,999.928,VALID,0,VALID,76.7158,VALID,0,VALID,26.4517,VALID,147,VALID,1.26563,
2009-06-03, 02:50:04,VALID,999.869,VALID,0,VALID,76.754,VALID,0,VALID,26.4321,VALID,147,VALID,1.02305,
2009-06-03, 02:51:04,VALID,999.855,VALID,0,VALID,76.8379,VALID,0,VALID,26.4126,VALID,146,VALID,0.923828,
2009-06-03, 02:52:04,VALID,999.856,VALID,0,VALID,76.8379,VALID,0.112286,VALID,26.3931,VALID,145,VALID,0.967578,
2009-06-03, 02:53:04,VALID,999.884,VALID,0,VALID,77.3491,VALID,0,VALID,26.3736,VALID,155,VALID,1.11563,
2009-06-03, 02:54:04,VALID,999.862,VALID,0,VALID,76.5709,VALID,0,VALID,26.3756,VALID,154,VALID,1.37812,
2009-06-03, 02:55:04,VALID,999.84,VALID,0,VALID,76.7006,VALID,0,VALID,26.4341,VALID,162,VALID,1.2582,
2009-06-03, 02:56:04,VALID,999.836,VALID,0,VALID,76.5785,VALID,0,VALID,26.4537,VALID,169,VALID,1.20664,
2009-06-03, 02:57:04,VALID,999.823,VALID,0,VALID,76.4869,VALID,0,VALID,26.5318,VALID,162,VALID,1.23047,
2009-06-03, 02:58:04,VALID,999.8,VALID,0,VALID,76.0826,VALID,0,VALID,26.5513,VALID,187,VALID,1.3207,
2009-06-03, 02:59:04,VALID,999.789,VALID,0,VALID,75.6401,VALID,0,VALID,26.5708,VALID,172,VALID,1.42578,
2009-06-03, 03:00:04,VALID,999.792,VALID,0,VALID,75.5332,VALID,0,VALID,26.6294,VALID,173,VALID,1.9332,
2009-06-03, 03:01:04,VALID,999.783,VALID,0,VALID,75.2433,VALID,0,VALID,26.7076,VALID,182,VALID,1.43555,
2009-06-03, 03:02:04,VALID,999.793,VALID,0,VALID,75.2281,VALID,0,VALID,26.7661,VALID,175,VALID,1.10859,
2009-06-03, 03:03:04,VALID,999.8,VALID,0,VALID,75.0678,VALID,0,VALID,26.7857,VALID,189,VALID,1.02422,
2009-06-03, 03:04:04,VALID,999.823,VALID,0,VALID,75.2891,VALID,0,VALID,26.7857,VALID,181,VALID,0.392969,
2009-06-03, 03:05:04,VALID,999.823,VALID,0,VALID,75.2052,VALID,0,VALID,26.7466,VALID,162,VALID,0.864453,
2009-06-03, 03:06:04,VALID,999.814,VALID,0,VALID,75.5332,VALID,0,VALID,26.7466,VALID,142,VALID,0.935156,
2009-06-03, 03:07:04,VALID,999.8,VALID,0,VALID,75.6553,VALID,0,VALID,26.688,VALID,137,VALID,1.04766,
2009-06-03, 03:08:04,VALID,999.795,VALID,0,VALID,76.0978,VALID,0,VALID,26.649,VALID,132,VALID,0.823438,
2009-06-03, 03:09:04,VALID,999.789,VALID,0,VALID,76.4412,VALID,0,VALID,26.5904,VALID,127,VALID,0.83125,
2009-06-03, 03:10:04,VALID,999.764,VALID,0,VALID,76.2733,VALID,0,VALID,26.5533,VALID,130,VALID,0.654688,
2009-06-03, 03:11:04,VALID,999.784,VALID,0,VALID,76.7311,VALID,0,VALID,26.5338,VALID,129,VALID,0.566797,
2009-06-03, 03:12:04,VALID,999.799,VALID,0,VALID,76.8303,VALID,0,VALID,26.4537,VALID,129,VALID,0.489062,
2009-06-03, 03:13:04,VALID,999.79,VALID,0,VALID,76.9523,VALID,0,VALID,26.4146,VALID,129,VALID,0.432031,
2009-06-03, 03:14:04,VALID,999.754,VALID,0,VALID,77.1812,VALID,0,VALID,26.3951,VALID,129,VALID,0.35,
2009-06-03, 03:15:04,VALID,999.728,VALID,0,VALID,77.7611,VALID,0,VALID,26.356,VALID,129,VALID,0.445703,
2009-06-03, 03:16:04,VALID,999.753,VALID,0,VALID,78.7148,VALID,0,VALID,26.2779,VALID,117,VALID,0.475,
2009-06-03, 03:17:04,VALID,999.765,VALID,0,VALID,79.4778,VALID,0,VALID,26.1823,VALID,106,VALID,0.567969,
2009-06-03, 03:18:04,VALID,999.714,VALID,0,VALID,80.1186,VALID,0,VALID,26.0846,VALID,49,VALID,0.611328,
2009-06-03, 03:19:04,VALID,999.758,VALID,0,VALID,80.7595,VALID,0,VALID,25.946,VALID,18,VALID,0.760547,
2009-06-03, 03:20:04,VALID,999.733,VALID,0,VALID,80.7061,VALID,0,VALID,25.8679,VALID,18,VALID,0.739062,
2009-06-03, 03:21:04,VALID,999.683,VALID,0,VALID,81.2707,VALID,0,VALID,25.8288,VALID,18,VALID,0.882031,
2009-06-03, 03:22:04,VALID,999.694,VALID,0,VALID,81.3852,VALID,0,VALID,25.8093,VALID,18,VALID,0.794141,
2009-06-03, 03:23:04,VALID,999.704,VALID,0,VALID,82.4228,VALID,0,VALID,25.7702,VALID,18,VALID,0.746094,
2009-06-03, 03:24:04,VALID,999.652,VALID,0,VALID,83.8037,VALID,0,VALID,25.6902,VALID,18,VALID,0.614062,
2009-06-03, 03:25:04,VALID,999.621,VALID,0,VALID,84.0479,VALID,0,VALID,25.5535,VALID,345,VALID,0.790625,
2009-06-03, 03:26:04,VALID,999.625,VALID,0,VALID,84.2615,VALID,0,VALID,25.5164,VALID,324,VALID,0.875391,
2009-06-03, 03:27:04,VALID,999.604,VALID,0,VALID,83.7351,VALID,0,VALID,25.4559,VALID,324,VALID,0.577734,
2009-06-03, 03:28:04,VALID,999.625,VALID,0,VALID,84.0632,VALID,0,VALID,25.4559,VALID,324,VALID,0.832422,
2009-06-03, 03:29:04,VALID,999.572,VALID,0,VALID,83.7732,VALID,0,VALID,25.4364,VALID,324,VALID,0.513672,
2009-06-03, 03:30:04,VALID,999.569,VALID,0,VALID,82.9492,VALID,0,VALID,25.4383,VALID,293,VALID,0.766016,
2009-06-03, 03:31:04,VALID,999.589,VALID,0,VALID,82.5601,VALID,0,VALID,25.5164,VALID,277,VALID,0.393359,
2009-06-03, 03:32:04,VALID,999.575,VALID,0,VALID,81.8658,VALID,0,VALID,25.5555,VALID,277,VALID,0.644531,
2009-06-03, 03:33:04,VALID,999.539,VALID,0,VALID,82.0413,VALID,0,VALID,25.5926,VALID,261,VALID,0.651563,
2009-06-03, 03:34:04,VALID,999.538,VALID,0,VALID,81.82,VALID,0,VALID,25.6336,VALID,260,VALID,0.589453,
2009-06-03, 03:35:04,VALID,999.539,VALID,0,VALID,81.5378,VALID,0,VALID,25.6726,VALID,245,VALID,0.739453,
2009-06-03, 03:36:04,VALID,999.508,VALID,0,VALID,81.6674,VALID,0,VALID,25.6726,VALID,260,VALID,0.534375,
2009-06-03, 03:37:04,VALID,999.552,VALID,0,VALID,80.9121,VALID,0,VALID,25.6707,VALID,264,VALID,0.813281,
2009-06-03, 03:38:04,VALID,999.518,VALID,0,VALID,81.1105,VALID,0,VALID,25.7292,VALID,260,VALID,0.645703,
2009-06-03, 03:39:04,VALID,999.48,VALID,0,VALID,80.7519,VALID,0,VALID,25.7917,VALID,279,VALID,0.850781,
2009-06-03, 03:40:04,VALID,999.503,VALID,0,VALID,80.7824,VALID,0,VALID,25.7702,VALID,279,VALID,0.569531,
2009-06-03, 03:41:04,VALID,999.481,VALID,0,VALID,80.6909,VALID,0,VALID,25.7917,VALID,257,VALID,0.764063,
2009-06-03, 03:42:04,VALID,999.501,VALID,0,VALID,80.6298,VALID,0,VALID,25.7897,VALID,257,VALID,0.774219,
2009-06-03, 03:43:04,VALID,999.529,VALID,0,VALID,80.8892,VALID,0,VALID,25.7897,VALID,258,VALID,0.5375,
2009-06-03, 03:44:04,VALID,999.519,VALID,0,VALID,80.6909,VALID,0,VALID,25.7897,VALID,258,VALID,0.520703,
2009-06-03, 03:45:04,VALID,999.514,VALID,0,VALID,80.5306,VALID,0,VALID,25.7702,VALID,258,VALID,0.405469,